Wetbulb
56.35 58.83 60.48 62.54 63.39 65.07 65.73 66.91 67.20 67.04 67.31 67.55 67.02 66.10 65.68 65.37 64.84 62.45 61.67 61.59 60.87 59.63 59.57 59.31 58.57 58.05 57.78 57.21 56.17 55.29 55.77 55.33 52.94 55.31 55.83 58.96 60.01 61.96 61.76 61.52 61.93 61.31 60.27
57.65 58.68 61.19 63.52 65.07 65.52 66.30 66.97 66.77 66.89 67.53 67.20 66.15 66.31 65.50 65.33 64.17 62.51 61.65 61.88 60.26 59.69 59.77 59.35 58.61 59.52 56.85 55.67 56.27 54.80 54.86 55.36 55.29 54.20 54.44 56.71 59.47 60.49 60.13 60.75 61.08 61.52 61.23
61.70 61.94 63.50 64.80 65.74 66.10 66.68 66.54 66.86 66.77 66.82 66.84 66.21 65.62 65.28 64.80 63.31 62.13 62.26 61.68 60.68 60.21 60.10 59.33 58.97 58.64 56.61 56.39 55.85 54.75 54.89 56.81 55.00 56.45 56.43 59.10 59.75 61.86 60.45 60.27 59.89 59.91 59.94
64.57 64.62 64.55 65.78 66.80 67.04 66.68 66.70 66.82 66.82 66.57 66.02 65.85 65.56 64.95 64.29 63.35 62.10 61.64 60.97 60.63 60.69 60.43 60.32 59.82 59.05 58.19 57.23 57.09 55.37 55.73 55.71 55.47 54.46 56.77 57.23 59.02 59.99 59.91 58.08 57.09 58.50 57.78
65.65 65.52 65.72 66.21 65.66 65.86 66.20 66.39 66.57 66.42 65.86 65.88 65.25 64.53 63.97 63.26 63.17 62.35 62.29 60.29 59.92 59.70 60.16 60.68 60.22 59.58 59.02 57.81 57.94 56.15 55.81 55.23 54.56 54.36 56.87 57.38 57.40 57.82 57.66 58.18 56.47 56.69 56.93
65.71 64.71 65.07 64.79 65.15 65.35 65.35 65.94 65.66 64.65 65.13 64.83 64.11 63.24 61.85 62.61 51.95 54.29 59.41 60.84 59.50 59.41 59.13 58.85 58.04 56.79 55.61 53.43 54.29 55.27 56.35 55.55 54.65 54.34 56.69 56.97 57.47 57.70 58.22 57.15 56.69 56.19 54.05
64.56 64.95 64.51 64.54 64.38 64.20 64.64 64.17 63.48 62.98 63.23 62.14 61.39 61.10 59.90 59.45 48.68 50.37 53.91 61.23 59.35 58.80 58.15 56.97 57.35 58.61 57.03 57.74 52.17 53.03 52.64 52.64 54.08 55.87 56.35 57.82 57.72 58.46 57.92 56.99 56.33 55.73 54.58
63.35 64.37 64.38 64.20 63.63 63.45 63.17 62.36 61.31 61.11 60.97 60.30 59.42 59.01 58.12 54.96 47.04 47.75 51.66 59.43 58.55 58.17 57.27 57.33 57.41 55.87 56.23 56.39 56.13 56.15 56.29 56.73 56.81 57.27 57.09 56.97 57.61 59.41 58.94 58.49 56.57 55.49 55.95
61.31 63.88 63.84 63.74 62.98 62.58 61.37 60.97 60.75 60.02 59.31 58.25 57.66 56.37 56.05 53.70 45.77 46.14 54.94 58.82 58.27 57.77 57.87 57.09 57.79 56.79 48.31 47.04 55.17 54.08 55.55 55.06 48.95 48.13 48.42 48.13 46.86 49.76 54.21 57.44 55.87 55.06 53.34
61.76 63.91 63.93 63.49 62.52 60.84 60.30 59.67 58.15 59.88 58.29 58.06 55.93 56.07 52.88 54.02 44.69 45.41 54.36 58.86 57.46 57.50 58.53 57.28 51.17 54.48 44.51 44.87 55.43 55.35 55.65 55.63 55.25 55.02 53.46 49.23 50.63 51.49 51.18 58.91 57.04 55.48 53.14
59.57 62.11 63.10 62.49 60.68 60.00 59.30 59.53 58.19 58.86 58.37 56.83 55.67 54.77 54.77 53.60 49.34 45.59 47.95 58.58 58.66 57.50 57.15 56.93 52.83 44.51 43.60 43.78 49.93 56.85 53.90 55.97 53.43 56.55 56.29 56.23 56.07 55.85 57.27 57.09 57.98 56.83 54.39
57.79 63.17 62.29 60.49 60.99 60.43 59.62 59.03 59.27 58.95 57.89 56.15 54.77 53.58 53.34 52.17 47.03 44.14 45.59 50.49 51.76 57.13 58.25 57.07 50.37 43.60 44.51 44.51 49.94 43.42 45.05 51.36 56.31 56.43 55.85 55.44 55.37 55.97 56.61 57.05 57.30 56.81 56.04
61.03 61.48 60.96 61.16 60.84 60.08 59.54 58.84 58.70 58.80 58.14 57.39 55.43 53.72 51.88 53.18 51.37 43.04 43.60 43.96 47.04 55.77 55.44 52.06 43.24 42.15 42.69 45.39 43.42 44.32 47.75 56.13 55.65 55.27 54.70 54.92 56.15 56.85 56.89 56.21 56.31 56.82 56.07
61.04 61.09 61.13 60.48 59.67 60.08 60.46 59.99 59.11 58.52 58.88 59.11 56.67 53.72 52.55 51.77 53.26 53.30 52.28 50.08 46.81 50.79 48.38 50.32 48.38 47.41 46.14 47.91 48.04 50.83 55.89 56.05 55.60 55.01 54.66 55.28 56.19 56.53 56.17 55.93 55.37 56.01 54.34
61.07 61.37 60.74 59.91 58.90 54.11 49.77 52.99 58.64 57.73 58.63 59.12 57.95 55.67 53.99 52.51 52.45 50.11 52.99 55.47 55.27 51.84 51.49 53.60 54.38 54.38 53.11 53.19 54.66 55.95 55.41 55.14 54.36 54.99 55.07 54.88 55.28 55.97 56.17 56.37 56.05 55.19 53.02
60.17 60.60 59.35 58.02 56.73 55.17 54.17 51.44 41.39 41.34 45.59 46.32 46.86 54.05 56.11 49.15 42.87 41.97 42.15 43.78 43.06 44.51 53.61 53.96 53.47 53.83 53.80 54.44 55.16 54.86 54.24 52.78 54.63 55.14 55.07 55.17 55.15 55.35 55.37 55.75 55.63 53.87 51.06
59.16 57.97 57.54 56.87 56.51 55.18 55.47 55.63 52.83 47.04 40.99 41.42 42.87 45.20 48.47 46.63 42.15 41.42 41.06 40.52 41.42 46.32 53.85 53.76 53.80 53.96 53.98 54.88 55.77 55.61 54.54 54.45 55.30 55.14 55.06 54.79 54.96 55.52 54.02 55.40 55.36 55.48 55.22
59.39 50.84 58.43 58.04 57.42 56.31 55.97 54.84 55.41 55.49 55.06 53.00 42.14 42.67 40.50 41.97 41.42 39.97 39.97 44.29 50.70 51.68 54.14 53.74 53.96 54.30 54.86 55.53 56.31 55.91 55.53 54.78 54.86 55.02 54.84 54.96 54.86 54.86 54.89 54.88 55.22 55.04 55.04
58.63 58.69 58.19 57.62 56.47 54.87 55.93 55.31 54.67 54.54 54.57 50.88 48.70 44.53 39.97 38.51 38.87 39.79 42.51 55.57 54.83 55.02 54.36 54.22 54.72 55.27 55.59 56.27 57.11 56.97 56.51 55.41 54.86 55.24 54.99 54.88 55.14 54.61 54.18 55.00 54.88 46.56 49.17
59.38 50.57 54.33 57.00 56.15 56.15 55.81 54.92 53.60 53.73 53.22 53.82 53.64 50.52 48.58 50.46 53.03 53.40 52.91 54.71 54.29 55.73 55.87 55.03 55.31 55.75 56.39 56.91 57.25 57.07 56.05 54.40 55.23 55.67 55.41 55.52 55.89 56.21 55.00 54.90 55.14 54.86 53.47
58.83 56.98 48.59 57.80 56.94 56.51 56.17 55.08 53.85 53.93 54.35 54.31 53.45 50.20 42.51 54.14 52.76 53.47 54.20 55.45 56.29 56.45 56.59 56.09 56.03 56.59 56.75 56.83 57.11 56.69 56.35 56.27 56.31 56.21 55.68 55.57 56.59 56.03 56.09 56.11 55.75 55.52 55.00
59.55 58.59 59.38 58.75 58.21 57.38 56.38 55.93 54.44 53.78 53.87 52.89 52.02 46.29 37.98 53.91 54.08 54.46 54.66 56.61 57.77 58.10 57.97 57.46 57.19 57.67 58.11 57.43 57.19 56.85 56.55 56.31 56.57 56.91 56.19 56.09 56.33 56.39 56.81 56.79 56.37 56.35 56.09
59.42 59.87 59.93 59.53 59.27 51.82 56.19 56.25 55.08 54.84 53.82 53.04 51.62 49.90 52.45 52.25 54.88 52.31 49.89 48.36 47.75 47.36 47.10 47.74 49.06 48.22 48.18 48.74 48.95 51.44 56.07 57.03 57.52 57.87 58.03 57.79 57.29 57.11 57.13 57.07 56.47 56.19 55.57
56.64 57.08 56.55 58.28 58.24 58.03 58.82 57.13 55.02 48.93 53.52 53.00 52.44 53.17 49.87 46.72 45.39 44.98 44.22 44.08 42.65 41.64 42.15 41.87 41.52 40.69 41.55 41.88 42.60 43.50 42.81 43.04 46.03 50.65 53.94 57.39 58.10 54.06 57.40 57.39 57.33 57.62 57.03
50.02 50.69 51.41 51.91 53.65 56.94 57.74 56.74 55.06 54.73 54.61 53.55 50.10 46.97 44.51 42.65 40.84 40.23 40.27 39.72 39.01 37.49 36.98 38.19 38.58 38.31 37.13 36.52 36.84 38.07 34.48 34.46 42.59 40.40 52.51 56.47 57.41 58.34 58.69 57.67 57.19 55.13 54.54
46.22 46.52 47.17 47.96 47.14 51.34 54.22 53.26 49.70 47.42 45.79 44.60 42.79 41.26 40.68 40.26 39.89 38.80 38.09 37.64 37.15 36.58 36.11 36.26 36.40 36.30 36.19 36.12 35.29 34.38 33.92 34.60 38.04 36.65 47.91 47.26 48.16 48.74 51.17 51.76 52.11 52.67 51.44
MSLP
994.10 994.50 995.42 995.95 996.73 997.45 998.03 998.51 999.05 999.76 1000.40 1000.95 1001.67 1002.32 1003.04 1003.79 1004.53 1005.18 1005.88 1006.34 1006.80 1007.33 1007.70 1008.13 1008.48 1008.68 1009.15 1009.48 1009.77 1010.05 1010.28 1010.46 1010.79 1010.79 1010.70 1010.63 1010.76 1010.77 1010.92 1011.03 1011.30 1011.61 1011.85
993.54 993.70 994.63 995.39 996.27 996.97 997.55 998.15 998.86 999.42 999.97 1000.47 1001.39 1002.19 1002.89 1003.61 1004.36 1004.99 1005.78 1006.25 1006.69 1007.15 1007.57 1007.96 1008.25 1008.65 1009.11 1009.37 1009.66 1009.88 1010.03 1010.28 1010.46 1010.70 1010.85 1010.91 1010.95 1011.18 1011.41 1011.69 1011.76 1011.85 1012.29
993.43 993.47 994.17 995.06 995.79 996.49 997.07 997.63 998.53 999.14 999.71 1000.44 1001.20 1002.01 1002.77 1003.44 1004.24 1004.84 1005.45 1006.01 1006.49 1006.89 1007.23 1007.61 1008.02 1008.50 1008.98 1009.22 1009.46 1009.72 1009.93 1010.06 1010.25 1010.44 1010.89 1010.99 1011.24 1011.40 1011.83 1012.09 1012.26 1012.65 1012.87
993.10 993.21 993.90 994.48 995.07 995.80 996.63 997.29 998.10 998.66 999.40 1000.24 1000.94 1001.75 1002.53 1003.32 1003.98 1004.72 1005.34 1005.81 1006.35 1006.63 1006.97 1007.36 1007.78 1008.21 1008.55 1008.83 1009.13 1009.46 1009.71 1009.92 1010.17 1010.55 1010.86 1011.06 1011.25 1011.60 1011.90 1012.28 1012.75 1013.14 1013.45
993.24 993.17 993.81 994.39 994.96 995.79 996.53 997.22 997.79 998.62 999.38 1000.03 1000.90 1001.75 1002.58 1003.14 1003.87 1004.49 1005.05 1005.67 1006.14 1006.55 1006.94 1007.15 1007.48 1007.80 1008.13 1008.35 1008.77 1009.15 1009.46 1009.77 1010.14 1010.54 1010.80 1011.07 1011.36 1011.61 1012.01 1012.56 1013.05 1013.60 1013.98
993.26 993.46 993.91 994.51 995.08 995.65 996.43 997.12 997.88 998.70 999.31 1000.11 1000.90 1001.79 1002.56 1003.18 1003.64 1004.12 1004.81 1005.51 1005.94 1006.43 1006.87 1007.22 1007.60 1007.75 1008.07 1008.17 1008.38 1008.70 1008.92 1009.41 1009.99 1010.39 1010.73 1010.86 1011.30 1011.60 1012.04 1012.59 1013.20 1013.83 1014.45
993.34 993.60 993.79 994.44 995.08 995.82 996.27 997.03 998.07 998.89 999.46 1000.33 1001.19 1001.88 1002.77 1003.35 1003.70 1004.08 1004.56 1005.22 1005.89 1006.44 1006.91 1007.32 1007.60 1007.73 1007.92 1008.15 1008.49 1008.56 1008.77 1009.05 1009.27 1009.64 1010.28 1010.58 1011.03 1011.36 1011.77 1012.50 1013.17 1013.62 1014.29
993.84 993.60 993.79 994.28 995.18 995.75 996.10 997.23 998.15 998.91 999.89 1000.72 1001.44 1002.21 1003.03 1003.69 1003.78 1004.16 1004.67 1005.20 1005.91 1006.38 1006.83 1007.15 1007.42 1007.79 1007.93 1008.14 1008.50 1008.75 1009.01 1009.33 1009.61 1009.78 1009.86 1010.17 1010.54 1011.18 1011.63 1012.03 1012.96 1013.93 1014.48
993.97 994.31 994.06 994.47 994.94 995.67 996.60 997.61 998.68 999.42 1000.17 1001.03 1001.67 1002.58 1003.09 1003.95 1004.24 1004.59 1004.81 1005.52 1006.14 1006.60 1006.87 1007.05 1007.31 1007.74 1008.04 1008.15 1008.57 1008.84 1009.22 1009.66 1009.88 1009.78 1009.97 1010.29 1010.69 1011.19 1011.58 1012.28 1013.02 1013.65 1014.43
994.06 994.40 994.64 994.55 995.20 996.16 996.98 997.99 998.89 999.67 1000.59 1001.40 1002.29 1002.62 1003.27 1004.04 1004.68 1004.89 1005.04 1005.63 1006.26 1006.67 1006.98 1007.30 1007.46 1007.73 1008.15 1008.28 1008.66 1008.82 1009.25 1009.61 1010.00 1010.41 1010.92 1011.29 1011.21 1011.43 1011.56 1011.86 1012.51 1013.26 1014.07
994.44 995.54 994.74 995.24 995.68 996.41 997.36 998.35 999.32 1000.21 1001.03 1001.71 1002.44 1003.22 1003.76 1004.34 1005.03 1005.04 1005.17 1005.63 1006.06 1006.61 1007.01 1007.53 1007.90 1008.04 1008.29 1008.51 1008.61 1008.77 1009.24 1009.56 1010.08 1010.35 1010.93 1011.39 1011.66 1011.95 1012.12 1012.19 1012.46 1012.48 1013.39
993.90 994.90 995.05 994.89 995.98 996.95 997.88 998.99 999.67 1000.40 1001.37 1002.21 1003.07 1003.95 1004.49 1004.91 1005.21 1005.42 1005.53 1005.52 1006.02 1006.48 1007.03 1007.58 1008.15 1008.27 1008.43 1008.65 1008.85 1009.00 1009.46 1009.67 1010.06 1010.48 1010.99 1011.42 1011.74 1012.04 1012.29 1012.42 1012.57 1012.82 1013.11
993.63 994.43 994.62 995.43 996.41 997.32 998.29 999.30 1000.07 1000.78 1001.58 1002.60 1003.38 1004.19 1004.85 1005.22 1005.50 1005.73 1005.72 1005.84 1006.13 1006.67 1007.18 1007.60 1008.20 1008.44 1008.61 1008.87 1008.99 1009.33 1009.65 1009.82 1010.20 1010.64 1011.07 1011.43 1011.69 1012.00 1012.32 1012.66 1012.88 1013.01 1013.34
993.48 993.65 994.95 996.01 997.05 997.88 998.76 999.72 1000.39 1001.10 1001.79 1002.62 1003.49 1004.18 1004.85 1005.27 1005.59 1005.82 1006.02 1006.41 1006.66 1007.09 1007.61 1008.01 1008.34 1008.57 1008.65 1008.93 1009.52 1009.61 1009.75 1009.90 1010.03 1010.55 1011.04 1011.45 1011.76 1012.11 1012.40 1012.70 1013.06 1013.26 1013.61
993.38 994.57 995.73 996.65 997.72 998.86 999.74 1000.58 1000.93 1001.24 1001.33 1002.17 1003.13 1003.75 1004.39 1005.12 1005.37 1005.53 1005.85 1006.33 1006.79 1007.23 1007.74 1008.16 1008.49 1008.70 1009.04 1009.33 1009.52 1009.61 1009.85 1010.14 1010.24 1010.58 1011.04 1011.46 1011.81 1012.02 1012.30 1012.57 1012.84 1013.25 1013.63
994.32 995.09 996.10 997.01 998.02 998.80 999.90 1001.21 1001.72 1001.91 1001.76 1002.14 1002.57 1003.17 1004.04 1004.33 1005.02 1005.68 1006.15 1006.50 1006.93 1007.29 1007.68 1008.11 1008.46 1008.67 1008.87 1009.13 1009.31 1009.60 1009.96 1010.17 1010.38 1010.62 1011.09 1011.46 1011.70 1011.94 1012.10 1012.39 1012.67 1013.13 1013.54
994.06 995.26 996.22 996.78 997.82 999.01 999.99 1000.87 1002.04 1003.06 1002.97 1003.16 1003.20 1003.43 1003.85 1004.53 1005.20 1005.75 1006.29 1006.73 1007.05 1007.25 1007.60 1008.04 1008.27 1008.52 1008.75 1008.92 1009.12 1009.42 1009.76 1010.14 1010.34 1010.68 1010.99 1011.41 1011.64 1011.86 1012.13 1012.48 1012.83 1013.18 1013.50
994.03 994.99 995.68 997.00 998.11 999.10 999.92 1000.73 1001.63 1002.49 1003.18 1003.98 1004.44 1004.52 1004.64 1004.92 1005.57 1006.12 1006.66 1007.12 1007.71 1007.58 1007.69 1007.95 1008.16 1008.35 1008.59 1008.78 1008.92 1009.16 1009.51 1010.03 1010.30 1010.62 1010.99 1011.28 1011.55 1011.77 1012.08 1012.32 1012.66 1012.99 1013.26
994.60 995.59 996.62 997.61 998.45 999.29 1000.13 1000.99 1001.74 1002.31 1003.15 1004.04 1004.89 1005.37 1005.78 1005.93 1006.14 1006.54 1006.68 1006.84 1007.22 1007.40 1007.56 1007.77 1007.99 1008.22 1008.39 1008.59 1008.78 1009.02 1009.27 1009.73 1010.25 1010.61 1010.95 1011.22 1011.45 1011.72 1012.05 1012.26 1012.60 1012.78 1012.96
995.74 995.93 996.84 997.90 998.91 999.81 1000.52 1001.20 1002.02 1002.68 1003.50 1004.25 1004.83 1005.65 1006.17 1006.16 1006.60 1006.83 1006.91 1007.02 1007.25 1007.44 1007.59 1007.82 1008.06 1008.20 1008.40 1008.51 1008.71 1008.96 1009.26 1009.92 1010.27 1010.52 1010.82 1011.10 1011.29 1011.50 1011.80 1012.07 1012.28 1012.52 1012.80
996.54 996.59 997.12 998.22 999.05 999.92 1000.67 1001.41 1002.22 1002.94 1003.66 1004.38 1005.29 1006.22 1006.52 1006.49 1006.82 1006.97 1007.04 1007.03 1007.10 1007.28 1007.48 1007.74 1007.95 1008.21 1008.48 1008.69 1008.78 1009.08 1009.41 1009.78 1010.09 1010.37 1010.65 1010.94 1011.09 1011.34 1011.53 1011.80 1012.06 1012.25 1012.49
996.68 997.04 997.52 998.27 999.15 999.97 1000.76 1001.52 1002.37 1003.21 1003.96 1004.83 1005.83 1006.79 1006.82 1006.86 1007.00 1007.14 1007.26 1007.22 1007.25 1007.44 1007.57 1007.71 1008.16 1008.48 1008.64 1008.85 1009.07 1009.29 1009.58 1009.84 1010.02 1010.21 1010.43 1010.64 1010.85 1011.04 1011.21 1011.46 1011.68 1011.91 1012.10
996.84 997.24 997.66 998.41 999.18 999.99 1000.87 1001.69 1002.52 1003.36 1004.13 1004.97 1005.89 1006.75 1007.04 1007.10 1007.18 1007.49 1007.86 1008.13 1008.33 1008.43 1008.55 1008.68 1009.08 1009.45 1009.55 1009.55 1009.60 1009.87 1009.89 1009.92 1009.85 1009.96 1010.13 1010.31 1010.54 1010.67 1010.83 1011.07 1011.36 1011.56 1011.69
997.27 997.47 998.14 998.68 999.36 1000.18 1000.74 1001.74 1002.77 1003.73 1004.32 1005.13 1006.09 1006.82 1007.36 1007.68 1008.09 1008.52 1008.87 1009.17 1009.46 1009.76 1009.94 1010.15 1010.45 1010.68 1010.53 1010.63 1010.60 1010.42 1010.53 1010.49 1010.38 1010.22 1010.18 1010.17 1010.20 1010.31 1010.33 1010.52 1010.77 1010.97 1011.07
998.69 998.33 999.32 999.72 1000.02 1000.54 1001.29 1002.07 1003.08 1004.09 1004.96 1005.70 1006.54 1007.38 1008.18 1008.59 1009.15 1009.66 1010.04 1010.43 1010.75 1011.06 1011.45 1011.68 1011.84 1012.03 1012.08 1011.96 1011.77 1011.43 1011.19 1010.75 1010.45 1010.42 1010.18 1010.15 1010.11 1010.12 1010.21 1010.29 1010.56 1010.77 1010.81
1000.23 1000.30 1000.83 1001.21 1001.40 1001.79 1002.34 1003.19 1004.16 1005.23 1005.97 1006.86 1007.68 1008.44 1009.01 1009.54 1010.04 1010.57 1011.11 1011.50 1011.94 1012.35 1012.66 1012.86 1013.02 1013.03 1013.02 1013.05 1013.05 1012.59 1011.75 1011.30 1011.11 1010.77 1010.63 1010.85 1010.96 1011.06 1011.09 1011.18 1011.21 1011.43 1011.71
Wind_Speed
9 9 9 9 9 9 9 9 10 10 10 12 11 10 10 9 8 7 6 6 6 5 4 5 6 5 4 3 3 2 2 2 3 1 1 2 2 4 4 5 5 4 5
12 9 9 9 10 10 9 10 11 11 11 12 10 11 11 10 9 8 7 6 7 6 6 6 5 4 4 4 3 4 3 3 3 3 1 3 3 4 4 6 5 5 4
7 8 10 10 11 11 11 11 11 11 11 11 12 12 11 11 9 7 7 7 7 6 6 6 5 6 5 3 3 4 3 2 1 2 2 1 2 3 5 5 6 6 5
6 8 10 11 12 12 11 12 12 12 12 12 12 11 11 10 9 8 7 7 6 6 6 5 5 6 6 6 5 5 4 4 2 4 3 2 2 3 3 4 5 4 4
7 10 11 10 10 11 11 12 11 12 11 12 12 9 9 9 7 8 8 6 6 5 5 5 5 6 7 7 4 5 5 4 3 3 5 2 2 5 6 3 4 4 4
9 9 9 10 11 11 11 13 13 12 12 12 11 10 8 5 11 12 9 6 6 6 6 4 3 4 4 8 8 8 7 6 4 4 4 6 6 5 6 7 6 5 3
6 8 10 11 11 11 13 14 12 12 11 9 8 9 7 6 11 12 12 7 7 6 6 5 4 2 4 4 2 7 7 8 5 6 9 9 6 7 8 8 4 4 3
2 8 11 13 13 13 14 12 11 9 12 9 8 8 8 4 9 11 10 7 6 6 6 6 5 4 3 5 5 5 4 4 5 3 6 6 5 8 7 7 7 6 5
6 6 10 13 14 13 13 12 9 10 8 7 7 8 8 5 7 10 9 6 6 6 5 5 5 5 4 8 6 6 5 3 5 4 6 9 12 13 10 9 7 9 4
9 7 10 11 14 13 12 11 5 9 7 7 6 6 8 8 5 9 7 5 6 4 4 4 5 5 7 9 6 7 6 3 5 5 6 7 7 11 14 9 10 8 4
4 9 10 11 11 12 10 9 7 8 9 7 8 5 6 6 5 7 10 5 6 5 4 3 3 5 8 6 7 5 4 7 7 7 6 5 5 6 3 4 4 9 7
4 14 12 13 10 10 12 8 9 10 9 8 8 5 4 4 4 3 8 7 7 5 5 3 3 5 7 8 5 10 10 8 6 6 5 4 4 4 3 4 4 4 3
17 14 12 11 10 9 11 9 8 9 8 7 6 6 4 3 3 5 7 8 9 4 4 6 10 7 8 6 11 12 8 5 5 5 4 2 3 4 5 4 4 5 5
12 13 11 10 9 8 7 7 8 7 8 7 6 6 5 4 4 2 4 5 9 8 8 5 5 6 5 6 5 5 3 3 5 5 4 3 3 4 3 3 3 3 3
12 12 10 10 11 8 8 4 5 4 9 10 7 7 8 5 4 6 8 6 5 6 8 3 2 2 3 4 4 3 4 3 4 4 4 3 3 3 3 4 4 3 3
12 10 9 9 9 8 8 6 15 9 8 8 12 9 3 9 13 11 10 12 14 13 3 3 3 3 3 5 5 4 3 4 4 4 4 4 4 4 4 4 3 2 3
13 10 8 10 8 8 7 8 7 8 15 12 7 12 10 10 13 13 12 12 13 7 3 3 3 4 3 3 4 4 4 3 4 4 5 4 4 4 4 4 4 4 2
13 12 10 8 8 6 6 6 6 7 6 4 11 7 6 13 13 13 13 10 3 1 2 3 3 3 3 4 4 3 4 4 4 4 4 5 3 4 3 3 3 4 3
11 8 8 7 6 8 7 6 5 6 7 5 4 7 8 11 11 12 7 5 5 3 2 3 3 3 3 3 4 4 5 5 4 4 3 3 4 3 3 3 3 3 3
4 14 11 9 8 8 6 7 7 7 7 5 6 5 4 4 3 3 2 3 4 3 2 3 3 3 3 3 4 5 4 4 4 4 4 4 4 3 3 4 4 4 4
5 7 10 8 8 7 7 7 7 6 7 6 6 4 6 6 6 3 2 3 3 3 3 3 3 3 3 3 3 4 4 4 4 3 3 4 4 4 4 3 4 4 4
6 7 8 9 8 8 7 7 7 7 8 8 6 4 3 5 5 4 3 2 2 2 1 3 3 3 2 3 3 3 3 3 3 3 3 4 4 3 3 3 3 3 4
5 7 8 7 8 9 8 7 7 7 8 8 8 6 2 3 4 5 6 6 6 6 6 7 6 6 6 6 6 5 2 1 2 4 4 4 4 4 4 4 4 4 5
6 6 6 5 8 8 9 9 8 7 8 9 9 6 5 7 8 8 7 7 8 8 8 8 9 10 7 7 6 6 5 5 4 4 4 3 4 5 5 6 6 7 5
7 9 8 6 6 8 9 10 10 9 9 9 9 9 8 8 9 9 9 9 9 10 11 10 8 12 13 13 12 11 9 7 4 3 3 5 6 5 3 2 1 2 2
10 12 10 8 10 8 9 9 10 10 10 10 10 9 9 10 10 10 9 11 10 11 12 9 13 18 17 13 14 12 13 14 12 10 8 8 8 7 6 6 7 4 5
Wind_Direction
194 181 170 165 161 156 169 173 173 161 165 161 158 148 147 148 145 138 145 149 150 154 156 169 186 160 170 156 148 158 171 148 158 294 42 57 74 108 88 65 69 76 85
206 171 173 154 156 161 170 174 161 167 166 155 151 149 151 152 150 146 154 159 158 167 174 177 185 161 179 180 176 178 168 181 149 150 71 53 94 90 101 96 79 64 68
182 160 151 157 161 174 170 158 159 159 152 147 147 153 154 152 153 154 158 162 169 175 176 175 187 172 187 177 174 180 189 165 152 118 124 113 89 112 93 76 76 64 63
180 153 158 164 169 166 159 153 160 152 148 151 153 153 151 154 159 156 156 162 170 182 172 182 192 189 192 185 190 185 181 158 133 110 120 98 108 95 99 115 85 56 65
175 158 165 157 144 142 144 148 143 148 145 145 143 143 149 150 161 159 157 166 173 174 174 190 204 201 196 187 171 186 175 156 131 120 143 115 113 147 145 108 105 103 58
153 141 133 135 139 144 144 147 142 139 147 146 144 147 142 153 155 146 147 155 157 159 161 164 161 154 197 201 193 182 177 156 153 136 167 167 161 127 134 134 134 130 110
129 138 139 139 139 149 142 134 139 141 130 137 138 131 139 135 155 150 143 146 148 150 155 158 172 158 164 152 118 182 190 176 158 153 160 179 159 161 141 138 138 120 109
354 147 146 145 146 146 127 131 122 133 138 137 132 132 128 126 141 149 144 134 139 145 160 168 159 160 164 149 153 126 119 131 140 168 170 164 148 141 153 141 127 103 94
356 184 156 152 140 131 130 129 134 124 121 128 132 134 127 123 121 141 127 131 135 150 155 158 150 155 163 157 139 122 111 87 45 70 115 129 130 131 135 127 144 145 137
3 175 167 146 142 135 131 130 127 127 119 126 121 122 127 128 127 152 132 130 134 141 132 113 136 145 158 160 143 139 131 121 123 103 89 85 129 144 155 167 153 150 119
281 281 160 152 134 128 122 121 119 118 122 114 111 103 107 127 136 145 149 142 150 151 140 146 132 136 163 166 143 137 151 129 120 112 111 119 124 147 148 124 173 160 157
297 206 161 128 132 129 124 122 119 119 119 116 112 97 93 107 90 122 167 132 143 141 150 130 113 117 153 156 121 126 124 117 121 114 119 124 138 147 137 135 135 123 96
241 157 137 128 125 124 121 122 118 127 129 131 132 133 130 121 100 83 141 143 136 107 121 128 125 122 122 131 139 141 141 124 123 130 130 116 123 123 115 101 98 108 97
150 119 118 114 120 121 122 133 133 134 139 144 144 139 136 138 142 124 108 107 101 91 106 102 116 106 80 110 116 141 121 143 143 136 136 119 119 142 144 141 146 142 113
122 123 124 119 117 96 71 59 125 117 155 159 162 154 151 164 191 152 145 138 134 125 115 109 111 101 106 133 149 150 132 143 136 135 138 140 141 154 153 165 155 141 141
129 127 130 127 123 119 115 95 45 40 119 137 144 147 121 133 141 135 129 126 128 141 106 135 142 146 148 164 159 149 143 150 141 140 139 152 161 160 151 156 141 133 144
126 129 126 121 121 128 134 133 120 49 64 54 90 132 135 153 145 145 139 133 147 139 135 160 160 159 160 165 170 166 162 149 138 149 155 154 150 145 141 153 159 166 175
130 126 125 127 132 129 129 124 136 146 138 104 40 56 86 140 139 128 128 114 125 76 133 149 157 160 164 179 170 154 136 145 148 146 154 156 156 150 157 160 157 168 173
133 127 123 118 113 114 116 112 109 106 117 110 109 63 58 74 101 128 148 139 161 160 156 144 151 152 157 160 159 147 148 154 149 146 142 153 156 147 161 172 174 167 174
136 123 121 118 119 118 121 118 108 110 120 126 130 122 131 115 126 136 86 130 126 111 144 138 158 146 151 137 138 137 131 144 155 156 157 168 165 166 174 175 180 184 210
129 132 122 122 131 132 128 124 121 122 133 131 117 108 133 134 143 132 125 126 140 153 157 150 149 134 134 127 123 132 147 153 161 165 165 174 166 185 188 192 196 203 221
147 148 137 133 132 133 130 127 125 119 124 121 118 105 68 124 131 129 134 109 56 57 75 122 118 108 117 140 148 151 160 167 166 172 171 181 192 196 193 200 207 211 215
140 154 138 134 136 126 132 129 127 129 122 121 126 139 153 123 96 77 67 54 51 51 43 53 57 48 33 35 25 17 9 227 201 184 182 188 191 197 196 208 215 223 226
96 103 106 138 138 138 134 132 119 109 122 123 130 124 90 83 79 74 71 72 66 57 54 57 54 54 45 43 33 30 13 341 329 319 314 239 217 206 215 216 222 231 234
65 75 77 76 99 134 132 120 119 123 116 112 100 95 87 82 79 74 72 67 66 66 60 56 52 54 49 47 43 41 21 5 9 312 303 269 247 221 215 195 149 61 63
66 69 65 61 61 66 95 100 97 94 93 91 88 80 84 86 84 83 81 80 76 69 67 60 62 58 50 42 33 22 33 37 34 36 50 41 43 34 38 38 49 45 31